{"data":{"norad_id":53175,"epoch":"2026-05-24T20:46:17.404608Z","epoch_age_seconds":90109,"freshness":"FRESH","line1":"1 53175U 22083AV  26144.86547922 -.00000949  00000+0 -41547-4 0  9994","line2":"2 53175  53.2128 192.1548 0001546  80.6035 279.5132 15.08834431212711","mean_motion":15.08834431,"eccentricity":0.0001546,"inclination_deg":53.2128,"raan_deg":192.1548,"arg_perigee_deg":80.6035,"mean_anomaly_deg":279.5132,"bstar":-4.1547e-5,"rev_number":21271,"period_min":95.437906930956,"perigee_km":538.69090428177,"apogee_km":540.82991816132,"semimajor_km":6917.8974112215,"source":"CELESTRAK","updated_at":"2026-05-25T13:38:17.324903Z"}}